Regional Weather Roundup
Issued by NWS

Home | Current Version | Previous Version | Text Only | Print | Product List | Glossary On
Versions: 1 2 3 4 5 6 7 8 9 10 11 12 13 14 15 16 17 18 19 20 21 22 23 24 25 26 27 28
000
ASUS46 KPQR 050810
RWROR

OREGON REGIONAL WEATHER ROUNDUP
NATIONAL WEATHER SERVICE PORTLAND OR
1200 AM PST MON DEC 05 2016

NOTE: "FAIR" INDICATES FEW OR NO CLOUDS BELOW 12,000 FEET WITH
NO SIGNIFICANT WEATHER AND/OR OBSTRUCTIONS TO VISIBILITY.

ORZ001>013-050900-
NORTHWEST OREGON


CITY           SKY/WX    TMP DP  RH WIND       PRES   REMARKS
ASTORIA        MOCLDY    38  33  82 SE7       30.20F WCI  33
NEWPORT        LGT RAIN  36  36 100 E5        30.30S WCI  32
PORTLAND       CLOUDY    38  35  89 S5        30.26R WCI  34
VANCOUVER WA   CLOUDY    39  35  86 CALM      30.25S
SCAPPOOSE      LGT RAIN  36  34  92 CALM      30.25R
HILLSBORO      LGT RAIN  35  33  92 N5        30.24S WCI  31
AURORA         CLOUDY    37  35  92 S3        30.26S
MCMINNVILLE    CLOUDY    37  34  89 SE5       30.26S WCI  33
SALEM          CLOUDY    38  35  89 SE6       30.25S WCI  33
CORVALLIS        N/A     39  34  81 CALM      30.27S
EUGENE         MIX PCPN  36  34  92 CALM      30.28S
$$

ORZ021-028-050900-
SOUTHWEST OREGON


CITY           SKY/WX    TMP DP  RH WIND       PRES   REMARKS
NORTH BEND     PTCLDY    37  36  93 SE6       30.29F WCI  33
BROOKINGS      CLEAR     42  33  70 NW3       30.25S
ROSEBURG       CLOUDY    39  38  96 CALM      30.27F FOG
SEXTON SUMMIT  CLOUDY    27  26  96 N9        30.12F FOG     WCI  18
MEDFORD        MOCLDY    38  36  92 CALM      30.22S
$$

ORZ014>016-041-050900-
COLUMBIA GORGE


CITY           SKY/WX    TMP DP  RH WIND       PRES   REMARKS
TROUTDALE      CLOUDY    37  35  92 CALM      30.25S
THE DALLES     PTCLDY    41  30  65 S8        30.18R
$$

ORZ029>031-041-044-049-050-061>064-502-503-505>511-050900-
EASTERN OREGON


CITY           SKY/WX    TMP DP  RH WIND       PRES   REMARKS
REDMOND        PTCLDY    21  17  84 CALM      30.12R
BEND           PTCLDY    27  21  80 CALM      30.11S
PRINEVILLE     CLOUDY    23  21  93 S5        30.12S WCI  17
KLAMATH FALLS  MOCLDY    30  24  78 NW10      30.09R WCI  21
LAKEVIEW       CLOUDY    28  19  69 N12G17    30.07R WCI  18
HERMISTON      CLEAR     33  25  72 SW7       30.13R WCI  27
PENDLETON      CLEAR     31  21  66 SW6       30.10R WCI  25
JOHN DAY       CLEAR     24  19  84 NW5       30.07R WCI  18
MEACHAM        PTCLDY    19  14  81 CALM      30.01S
LA GRANDE      CLEAR     28  14  54 NW10      30.05R WCI  19
BAKER CITY     CLEAR     23  13  65 SW5       30.03R WCI  17
BURNS          CLEAR     16  13  88 W7        30.06R WCI   6
ROME             N/A     31  14  49 W8        30.04R WCI  23
ONTARIO        CLEAR     31  16  54 NW8       30.09R WCI  23
$$




USA.gov is the U.S. government's official web portal to all federal, state and local government web resources and services.